| time (UTC) | temp F | wind direction | speed MPH | gust MPH | rain 1hr in | rain 24hr in | rain mn in | humidity % | barometer mb |
| 20260905175024 | 68 | 0.0 | 0.0 | 0.00 | 0.02 | 0.02 | 59 | 1020.1 | |
| 20260905174031 | 69 | 0.0 | 0.0 | 0.00 | 0.02 | 0.02 | 57 | 1019.7 | |
| 20260905173029 | 69 | 321 | 0.0 | 1.0 | 0.00 | 0.02 | 0.02 | 55 | 1019.7 |
| 20260905172026 | 69 | 285 | 1.0 | 3.0 | 0.00 | 0.02 | 0.02 | 55 | 1019.7 |
| 20260905171026 | 69 | 321 | 0.0 | 0.0 | 0.00 | 0.02 | 0.02 | 56 | 1019.8 |
| 20260905170024 | 69 | 246 | 0.0 | 1.0 | 0.00 | 0.02 | 0.02 | 55 | 1019.5 |
| 20260905165052 | 70 | 270 | 0.0 | 0.0 | 0.00 | 0.02 | 0.02 | 55 | 1019.5 |
| 20260905164033 | 70 | 0.0 | 0.0 | 0.00 | 0.02 | 0.02 | 53 | 1019.5 | |
| 20260905163054 | 70 | 311 | 0.0 | 1.0 | 0.00 | 0.02 | 0.02 | 51 | 1019.5 |
| 20260905162037 | 71 | 292 | 0.0 | 0.0 | 0.00 | 0.02 | 0.02 | 50 | 1019.6 |
| 20260905161046 | 72 | 290 | 0.0 | 1.0 | 0.00 | 0.02 | 0.02 | 49 | 1019.6 |
| 20260905160047 | 73 | 264 | 1.0 | 3.0 | 0.00 | 0.02 | 0.02 | 48 | 1019.3 |
| 20260905155022 | 73 | 309 | 0.0 | 1.0 | 0.00 | 0.02 | 0.02 | 48 | 1019.3 |
| 20260905154031 | 74 | 295 | 1.0 | 4.0 | 0.00 | 0.02 | 0.02 | 47 | 1019.3 |
| 20260905153023 | 75 | 278 | 2.0 | 4.0 | 0.00 | 0.02 | 0.02 | 45 | 1019.4 |
| 20260905152025 | 77 | 291 | 2.0 | 4.0 | 0.00 | 0.02 | 0.02 | 44 | 1019.4 |
| 20260905151042 | 79 | 282 | 1.0 | 3.0 | 0.00 | 0.02 | 0.02 | 43 | 1019.5 |
| 20260905150024 | 79 | 288 | 0.0 | 1.0 | 0.00 | 0.02 | 0.02 | 44 | 1019.2 |
| 20260905145022 | 78 | 336 | 1.0 | 3.0 | 0.00 | 0.02 | 0.02 | 44 | 1019.2 |
| 20260905144041 | 78 | 317 | 1.0 | 2.0 | 0.00 | 0.02 | 0.02 | 44 | 1019.2 |
| 20260905143034 | 77 | 327 | 1.0 | 3.0 | 0.00 | 0.02 | 0.02 | 44 | 1019.2 |
| 20260905142055 | 77 | 320 | 1.0 | 2.0 | 0.00 | 0.02 | 0.02 | 45 | 1019.2 |
| 20260905141025 | 77 | 329 | 1.0 | 3.0 | 0.00 | 0.02 | 0.02 | 46 | 1019.5 |
| 20260905140031 | 78 | 304 | 1.0 | 3.0 | 0.00 | 0.02 | 0.02 | 44 | 1019.2 |
| 20260905135024 | 79 | 254 | 1.0 | 3.0 | 0.00 | 0.02 | 0.02 | 44 | 1019.3 |
| 20260905134028 | 77 | 300 | 1.0 | 2.0 | 0.00 | 0.02 | 0.02 | 46 | 1019.6 |
| 20260905133102 | 77 | 344 | 1.0 | 3.0 | 0.00 | 0.02 | 0.02 | 46 | 1019.6 |
| 20260905132024 | 77 | 302 | 1.0 | 1.0 | 0.00 | 0.02 | 0.02 | 47 | 1019.6 |
| 20260905131024 | 77 | 334 | 1.0 | 3.0 | 0.00 | 0.02 | 0.02 | 46 | 1019.6 |
| 20260905130029 | 76 | 330 | 1.0 | 4.0 | 0.00 | 0.02 | 0.02 | 48 | 1019.5 |
| 20260905125023 | 76 | 350 | 1.0 | 4.0 | 0.00 | 0.02 | 0.02 | 48 | 1019.5 |
| 20260905124033 | 75 | 289 | 0.0 | 3.0 | 0.00 | 0.02 | 0.02 | 50 | 1019.5 |
| 20260905123056 | 75 | 340 | 0.0 | 2.0 | 0.00 | 0.02 | 0.02 | 51 | 1019.5 |
| 20260905122025 | 74 | 306 | 1.0 | 2.0 | 0.00 | 0.02 | 0.02 | 51 | 1019.5 |
| 20260905121111 | 73 | 268 | 2.0 | 4.0 | 0.00 | 0.02 | 0.02 | 51 | 1019.4 |
| 20260905120023 | 73 | 261 | 3.0 | 5.0 | 0.00 | 0.02 | 0.02 | 51 | 1019.4 |
| 20260905115023 | 73 | 283 | 3.0 | 5.0 | 0.00 | 0.02 | 0.02 | 53 | 1019.4 |
| 20260905114028 | 72 | 270 | 3.0 | 5.0 | 0.00 | 0.02 | 0.02 | 54 | 1019.8 |
| 20260905113027 | 72 | 275 | 3.0 | 5.0 | 0.00 | 0.02 | 0.02 | 56 | 1019.7 |
| 20260905112108 | 73 | 267 | 2.0 | 5.0 | 0.00 | 0.02 | 0.02 | 56 | 1019.7 |
| 20260905111023 | 72 | 262 | 1.0 | 4.0 | 0.00 | 0.02 | 0.02 | 59 | 1019.7 |
| 20260905110023 | 70 | 286 | 1.0 | 5.0 | 0.00 | 0.02 | 0.02 | 63 | 1020.0 |
| 20260905105025 | 70 | 0.0 | 0.0 | 0.00 | 0.02 | 0.02 | 65 | 1020.0 | |
| 20260905104022 | 71 | 266 | 0.0 | 1.0 | 0.00 | 0.02 | 0.02 | 65 | 1020.0 |
| 20260905103038 | 70 | 245 | 1.0 | 6.0 | 0.00 | 0.02 | 0.02 | 66 | 1020.0 |
| 20260905102049 | 70 | 274 | 1.0 | 4.0 | 0.00 | 0.02 | 0.02 | 66 | 1020.0 |
| 20260905101103 | 70 | 245 | 0.0 | 2.0 | 0.00 | 0.02 | 0.02 | 66 | 1020.4 |
| 20260905100026 | 69 | 281 | 1.0 | 4.0 | 0.00 | 0.02 | 0.02 | 68 | 1020.0 |
| 20260905095024 | 68 | 267 | 1.0 | 4.0 | 0.00 | 0.02 | 0.02 | 71 | 1020.0 |
| 20260905094056 | 68 | 256 | 2.0 | 5.0 | 0.00 | 0.02 | 0.02 | 71 | 1020.3 |
| 20260905093037 | 68 | 250 | 1.0 | 4.0 | 0.00 | 0.02 | 0.02 | 72 | 1020.6 |
| 20260905092025 | 68 | 242 | 1.0 | 3.0 | 0.00 | 0.02 | 0.02 | 73 | 1020.6 |
| 20260905091052 | 66 | 291 | 0.0 | 2.0 | 0.00 | 0.02 | 0.02 | 76 | 1020.2 |
| 20260905090020 | 64 | 280 | 2.0 | 4.0 | 0.00 | 0.02 | 0.02 | 78 | 1020.5 |
| 20260905085033 | 63 | 267 | 1.0 | 3.0 | 0.00 | 0.02 | 0.02 | 80 | 1020.5 |
| 20260905084052 | 62 | 270 | 1.0 | 5.0 | 0.00 | 0.02 | 0.02 | 82 | 1020.4 |
| 20260905083037 | 61 | 277 | 1.0 | 3.0 | 0.00 | 0.02 | 0.02 | 84 | 1020.8 |
| 20260905082131 | 61 | 290 | 0.0 | 3.0 | 0.00 | 0.02 | 0.02 | 85 | 1020.7 |
| 20260905081032 | 60 | 279 | 0.0 | 3.0 | 0.00 | 0.02 | 0.02 | 86 | 1019.8 |
| 20260905080035 | 60 | 260 | 0.0 | 1.0 | 0.00 | 0.02 | 0.02 | 87 | 1019.8 |
| 20260905075026 | 60 | 0.0 | 0.0 | 0.01 | 0.02 | 0.02 | 88 | 1019.8 | |
| 20260905074021 | 59 | 0.0 | 0.0 | 0.01 | 0.02 | 0.02 | 89 | 1019.4 | |
| 20260905073035 | 59 | 0.0 | 0.0 | 0.02 | 0.02 | 0.02 | 89 | 1018.8 | |
| 20260905072045 | 59 | 0.0 | 0.0 | 0.02 | 0.02 | 0.02 | 88 | 1018.8 | |
| 20260905071034 | 59 | 261 | 0.0 | 2.0 | 0.02 | 0.02 | 0.02 | 87 | 1019.1 |
| 20260905070045 | 60 | 265 | 1.0 | 3.0 | 0.02 | 0.02 | 0.02 | 87 | 1019.5 |
| 20260905065037 | 61 | 287 | 1.0 | 3.0 | 0.01 | 0.01 | 0.01 | 85 | 1019.6 |
| 20260905064054 | 61 | 317 | 0.0 | 2.0 | 0.01 | 0.01 | 0.01 | 85 | 1019.2 |
| 20260905063108 | 61 | 256 | 1.0 | 3.0 | 0.00 | 0.00 | 0.00 | 86 | 1019.0 |
| 20260905062033 | 61 | 239 | 0.0 | 3.0 | 0.00 | 0.00 | 0.00 | 87 | 1019.0 |
| 20260905061040 | 62 | 323 | 0.0 | 1.0 | 0.00 | 0.00 | 0.00 | 88 | 1019.0 |
| 20260905060046 | 62 | 280 | 1.0 | 3.0 | 0.00 | 0.00 | 0.00 | 87 | 1019.1 |
| 20260905055050 | 62 | 290 | 0.0 | 0.0 | 0.00 | 0.00 | 0.00 | 87 | 1019.1 |
| 20260905054023 | 62 | 0.0 | 0.0 | 0.00 | 0.00 | 0.00 | 87 | 1018.8 | |
| 20260905053024 | 62 | 0.0 | 0.0 | 0.00 | 0.00 | 0.00 | 86 | 1018.5 | |
| 20260905052048 | 62 | 0.0 | 0.0 | 0.00 | 0.00 | 0.00 | 85 | 1018.5 | |
| 20260905051027 | 62 | 0.0 | 0.0 | 0.00 | 0.00 | 0.00 | 84 | 1018.8 | |
| 20260905050034 | 63 | 0.0 | 0.0 | 0.00 | 0.00 | 0.00 | 84 | 1018.8 | |
| 20260905045020 | 63 | 0.0 | 0.0 | 0.00 | 0.00 | 0.00 | 83 | 1018.8 | |
| 20260905044022 | 64 | 0.0 | 0.0 | 0.00 | 0.00 | 0.00 | 81 | 1017.9 | |
| 20260905043024 | 64 | 0.0 | 0.0 | 0.00 | 0.00 | 0.00 | 79 | 1018.2 | |
| 20260905042100 | 65 | 177 | 0.0 | 0.0 | 0.00 | 0.00 | 0.00 | 77 | 1018.2 |
| 20260905041034 | 65 | 0.0 | 0.0 | 0.00 | 0.00 | 0.00 | 75 | 1017.9 | |
| 20260905040022 | 65 | 170 | 0.0 | 0.0 | 0.00 | 0.00 | 0.00 | 74 | 1016.9 |
| 20260905035031 | 65 | 237 | 0.0 | 0.0 | 0.00 | 0.00 | 0.00 | 74 | 1016.9 |
| 20260905034036 | 65 | 48 | 0.0 | 0.0 | 0.00 | 0.00 | 0.00 | 73 | 1016.9 |
| 20260905033048 | 65 | 46 | 0.0 | 0.0 | 0.00 | 0.00 | 0.00 | 73 | 1016.7 |
| 20260905032028 | 65 | 326 | 0.0 | 0.0 | 0.00 | 0.00 | 0.00 | 72 | 1016.7 |
| 20260905031030 | 65 | 98 | 0.0 | 1.0 | 0.00 | 0.00 | 0.00 | 73 | 1016.4 |
| 20260905030025 | 65 | 0.0 | 0.0 | 0.00 | 0.00 | 0.00 | 72 | 1015.6 | |
| 20260905025032 | 66 | 0.0 | 0.0 | 0.00 | 0.00 | 0.00 | 71 | 1015.7 | |
| 20260905024035 | 66 | 0.0 | 0.0 | 0.00 | 0.00 | 0.00 | 71 | 1016.4 | |
| 20260905023051 | 66 | 0.0 | 0.0 | 0.00 | 0.00 | 0.00 | 70 | 1015.6 | |
| 20260905022022 | 67 | 0.0 | 0.0 | 0.00 | 0.00 | 0.00 | 69 | 1015.7 | |
| 20260905021050 | 68 | 351 | 0.0 | 1.0 | 0.00 | 0.00 | 0.00 | 68 | 1016.0 |
| 20260905020033 | 68 | 318 | 0.0 | 2.0 | 0.00 | 0.00 | 0.00 | 69 | 1016.0 |
| 20260905015031 | 68 | 352 | 0.0 | 3.0 | 0.00 | 0.00 | 0.00 | 68 | 1016.0 |
| 20260905014049 | 69 | 325 | 0.0 | 2.0 | 0.00 | 0.00 | 0.00 | 68 | 1015.7 |
| 20260905013028 | 69 | 348 | 0.0 | 1.0 | 0.00 | 0.00 | 0.00 | 69 | 1015.3 |
| 20260905012030 | 70 | 318 | 1.0 | 2.0 | 0.00 | 0.00 | 0.00 | 70 | 1015.4 |
| 20260905011029 | 69 | 13 | 1.0 | 4.0 | 0.00 | 0.00 | 0.00 | 70 | 1015.3 |
| 20260905010026 | 69 | 0 | 1.0 | 4.0 | 0.00 | 0.00 | 0.00 | 68 | 1014.0 |
| 20260905005047 | 69 | 0.0 | 0.0 | 0.00 | 0.00 | 0.00 | 68 | 1013.9 | |
| 20260905004050 | 69 | 0.0 | 0.0 | 0.00 | 0.00 | 0.00 | 68 | 1013.6 | |
| 20260905003036 | 69 | 0.0 | 0.0 | 0.00 | 0.00 | 0.00 | 68 | 1013.6 | |
| 20260905002046 | 70 | 0.0 | 0.0 | 0.00 | 0.00 | 0.00 | 67 | 1013.6 | |
| 20260905001047 | 70 | 0.0 | 0.0 | 0.00 | 0.00 | 0.00 | 65 | 1013.3 | |
| 20260905000050 | 70 | 242 | 0.0 | 2.0 | 0.00 | 0.00 | 0.00 | 64 | 1012.9 |
| 20260904235059 | 70 | 312 | 0.0 | 3.0 | 0.00 | 0.00 | 0.00 | 65 | 1013.0 |
| 20260904234025 | 70 | 292 | 0.0 | 0.0 | 0.00 | 0.00 | 0.00 | 66 | 1013.3 |
| 20260904233103 | 70 | 280 | 0.0 | 2.0 | 0.00 | 0.00 | 0.00 | 65 | 1012.9 |
| 20260904232024 | 70 | 285 | 1.0 | 2.0 | 0.00 | 0.00 | 0.00 | 66 | 1012.9 |
| 20260904231022 | 69 | 272 | 0.0 | 1.0 | 0.00 | 0.00 | 0.00 | 68 | 1012.9 |
| 20260904230021 | 67 | 0.0 | 0.0 | 0.00 | 0.00 | 0.00 | 71 | 1012.9 | |
| 20260904225025 | 66 | 0.0 | 0.0 | 0.00 | 0.00 | 0.00 | 75 | 1012.8 | |
| 20260904224025 | 66 | 0.0 | 0.0 | 0.00 | 0.00 | 0.00 | 75 | 1012.8 | |
| 20260904223021 | 67 | 0.0 | 0.0 | 0.00 | 0.00 | 0.00 | 74 | 1012.8 | |
| 20260904222025 | 67 | 0.0 | 0.0 | 0.00 | 0.00 | 0.00 | 73 | 1012.8 | |
| 20260904221034 | 68 | 0.0 | 0.0 | 0.00 | 0.00 | 0.00 | 71 | 1012.8 | |
| 20260904215024 | 68 | 0.0 | 0.0 | 0.00 | 0.00 | 0.00 | 70 | 1012.8 | |
| 20260904214102 | 69 | 0.0 | 0.0 | 0.00 | 0.00 | 0.00 | 70 | 1012.8 | |
| 20260904213051 | 70 | 0.0 | 0.0 | 0.00 | 0.00 | 0.00 | 69 | 1012.9 | |
| 20260904212019 | 71 | 0.0 | 0.0 | 0.00 | 0.00 | 0.00 | 67 | 1013.0 | |
| 20260904211020 | 70 | 315 | 0.0 | 0.0 | 0.00 | 0.00 | 0.00 | 66 | 1012.9 |
| 20260904210054 | 68 | 0.0 | 0.0 | 0.00 | 0.00 | 0.00 | 71 | 1012.9 | |
| 20260904205023 | 68 | 0.0 | 0.0 | 0.00 | 0.00 | 0.00 | 73 | 1012.8 | |
| 20260904204026 | 68 | 0.0 | 0.0 | 0.00 | 0.00 | 0.00 | 71 | 1012.8 | |
| 20260904203024 | 68 | 0.0 | 0.0 | 0.00 | 0.00 | 0.00 | 70 | 1013.1 | |
| 20260904202022 | 69 | 0.0 | 0.0 | 0.00 | 0.00 | 0.00 | 70 | 1013.1 | |
| 20260904201051 | 70 | 0.0 | 0.0 | 0.00 | 0.00 | 0.00 | 69 | 1013.1 | |
| 20260904200035 | 70 | 0.0 | 0.0 | 0.00 | 0.00 | 0.00 | 67 | 1013.4 | |
| 20260904195045 | 71 | 0.0 | 0.0 | 0.00 | 0.00 | 0.00 | 65 | 1013.5 | |
| 20260904194045 | 72 | 0.0 | 0.0 | 0.00 | 0.00 | 0.00 | 64 | 1013.5 | |
| 20260904193034 | 71 | 275 | 0.0 | 0.0 | 0.00 | 0.00 | 0.00 | 64 | 1013.4 |
| 20260904192048 | 71 | 266 | 0.0 | 0.0 | 0.00 | 0.00 | 0.00 | 65 | 1013.3 |
| 20260904191034 | 71 | 237 | 0.0 | 0.0 | 0.00 | 0.00 | 0.00 | 65 | 1012.9 |
| 20260904190041 | 72 | 263 | 0.0 | 1.0 | 0.00 | 0.00 | 0.00 | 64 | 1013.3 |
| 20260904185049 | 73 | 279 | 0.0 | 0.0 | 0.00 | 0.00 | 0.00 | 63 | 1013.3 |
| 20260904184037 | 74 | 269 | 0.0 | 0.0 | 0.00 | 0.00 | 0.00 | 60 | 1013.3 |
| 20260904183035 | 74 | 264 | 0.0 | 1.0 | 0.00 | 0.00 | 0.00 | 59 | 1012.6 |
| 20260904182048 | 75 | 260 | 1.0 | 3.0 | 0.00 | 0.00 | 0.00 | 59 | 1012.6 |
| 20260904181020 | 77 | 256 | 0.0 | 3.0 | 0.00 | 0.00 | 0.00 | 57 | 1012.6 |
| 20260904180029 | 78 | 280 | 1.0 | 3.0 | 0.00 | 0.00 | 0.00 | 55 | 1012.3 |